Flag for Germany Weather past 2 weeks in Neuruppin, Brandenburg, Germany

Now
56 °F

Overcast.


Feels Like: 56 °F
Forecast: 51 / 68 °F
Wind: No wind

Location: Neuruppin

Current Time: Oct 1, 2014 at 10:34:55 PM

Latest Report: Oct 1, 2014 at 10:00 PM


Visibility: 2 mi

Pressure: 30.34 "Hg

Humidity: 97%

Dew point: 55 °F

Location of NeuruppinLocation

Historic Weather in Neuruppin — Graph

°F

Neuruppin temperature yesterday

Maximum temperature yesterday: 67 °F (at 4:00 PM)
Minimum temperature yesterday: 58 °F (at 11:00 PM)
Average temperature yesterday: 62 °F

Past Weeks' High & Low Weather Summary

 TemperatureHumidityPressure
High73 °F (Sep 17, 5:00 PM)99% (Sep 21, 8:00 AM)30.37 "Hg (Sep 21, 8:00 AM)
Low43 °F (Sep 28, 7:00 AM)52% (Sep 18, 4:00 PM)29.78 "Hg (Sep 22, 9:00 AM)
Average58 °F83%30.06 "Hg
* Reported Sep 16 9:00 PM — Oct 1 9:00 PM, Neuruppin, Weather by CustomWeather, © 2014

Note: Actual official high and low records may vary slightly from our data, if they occured in-between our weather recording intervals... More about our weather records

Advertising

Neuruppin weather history for previous 24 hours

 ConditionsComfort  
Time TempWeatherWind HumidityBarometerVisibility
9:00 PM
Oct 1
55 °FClear.No wind94%30.34 "Hg2 mi
8:00 PM57 °FClear.No wind92%30.33 "Hg4 mi
7:00 PM60 °FClear.1 mph86%30.32 "Hg6 mi
6:00 PM65 °FSunny.1 mph72%30.31 "Hg6 mi
4:00 PM67 °FSunny.2 mph67%30.30 "Hg6 mi
3:00 PM67 °FSunny.2 mph73%30.31 "Hg6 mi
2:00 PM65 °FPassing clouds.2 mph79%30.32 "Hg6 mi
1:00 PM62 °FLow clouds.1 mph90%30.33 "Hg6 mi
12:00 PM59 °FLow clouds.1 mph94%30.33 "Hg2 mi
11:00 AM57 °FCool.1 mph98%30.33 "Hg1 mi
10:00 AM54 °FCool.No wind98%30.32 "Hg0 mi
9:00 AM54 °FCool.1 mph99%30.31 "Hg0 mi
8:00 AM54 °FCool.1 mph98%30.29 "Hg0 mi
7:00 AM54 °FCool.No wind99%30.29 "Hg0 mi
6:00 AM55 °FCool.No wind98%30.29 "Hg0 mi
4:00 AM57 °FOvercast.1 mph99%30.29 "Hg1 mi
3:00 AM57 °FPassing clouds.1 mph97%30.28 "Hg1 mi
2:00 AM58 °FOvercast.No wind96%30.28 "Hg1 mi
1:00 AM59 °FOvercast.No wind97%30.28 "Hg1 mi
12:00 AM59 °FOvercast.No wind97%30.27 "Hg2 mi
11:00 PM
Sep 30
58 °FOvercast.No wind97%30.27 "Hg1 mi
10:00 PM60 °FPassing clouds.1 mph97%30.27 "Hg1 mi
Weather by CustomWeather, © 2014

See weather overviewHow to use our weather pages